Flag Weather past 2 weeks in Santa Ana, El Salvador

Now
86 °F

Scattered clouds.


Feels Like: 93 °F
Forecast: 65 / 83 °F
Wind: 7 mph from Southeast

Location: San Salvador / Ilopango

Current Time: Oct 30, 2014 at 1:20:19 PM

Latest Report: Oct 30, 2014 at 12:50 PM


Visibility: N/A

Pressure: 29.89 "Hg

Humidity: 66%

Dew point: 73 °F

Location of Santa AnaLocation

Historic Weather in Santa Ana — Graph

°F

Santa Ana temperature yesterday

Maximum temperature yesterday: 88 °F (at 12:50 PM)
Minimum temperature yesterday: 70 °F (at 5:50 AM)
Average temperature yesterday: 78 °F

Past Weeks' High & Low Weather Summary

 TemperatureHumidityPressure
High88 °F (Oct 29, 12:50 PM)100% (Oct 15, 9:50 PM)30.07 "Hg (Oct 15, 9:50 PM)
Low59 °F (Oct 27, 5:50 AM)58% (Oct 26, 3:50 PM)29.83 "Hg (Oct 19, 12:50 PM)
Average75 °F85%29.96 "Hg
* Reported Oct 15 11:50 AM — Oct 30 11:50 AM, Santa Ana, Weather by CustomWeather, © 2014

Note: Actual official high and low records may vary slightly from our data, if they occured in-between our weather recording intervals... More about our weather records

Advertising

Santa Ana weather history for previous 24 hours

 ConditionsComfort  
Time TempWeatherWind HumidityBarometerVisibility
11:50 AM
Oct 30
82 °FScattered clouds.2 mph74%29.92 "HgN/A
10:50 AM82 °FScattered clouds.3 mph74%29.95 "HgN/A
9:50 AM82 °FScattered clouds.5 mph79%29.98 "HgN/A
8:50 AM79 °FScattered clouds.3 mph84%29.98 "HgN/A
7:50 AM73 °FPassing clouds.5 mph94%29.95 "HgN/A
6:50 AM72 °FFog.5 mph94%29.95 "Hg1 mi
5:50 AM72 °FFog.6 mph94%29.92 "Hg1 mi
11:50 PM
Oct 29
73 °FPassing clouds.No wind94%29.95 "HgN/A
10:50 PM73 °FPassing clouds.No wind94%29.95 "HgN/A
9:50 PM73 °FPassing clouds.2 mph94%29.95 "HgN/A
8:50 PM73 °FPassing clouds.No wind94%29.95 "HgN/A
7:50 PM73 °FClear.2 mph94%29.92 "Hg10 mi
6:50 PM75 °FPassing clouds.3 mph89%29.89 "HgN/A
5:50 PM75 °FPassing clouds.5 mph89%29.89 "HgN/A
4:50 PM77 °FPassing clouds.7 mph89%29.89 "HgN/A
3:50 PM82 °FPassing clouds.6 mph74%29.89 "HgN/A
2:50 PM86 °FPassing clouds.2 mph66%29.89 "HgN/A
1:50 PM82 °FPassing clouds.3 mph74%29.92 "HgN/A
Weather by CustomWeather, © 2014

See weather overviewHow to use our weather pages